Vorticity
-48 29 6 32 -35 3 25 15 25 9 20 10 12 14 15 10 3 5 4 1 2 6 6 8 10 4 6 3 5 4 -3 3
6 29 21 38 -24 14 3 17 26 3 1 -2 6 8 5 -1 9 2 -0 1 1 8 7 8 10 2 3 2 3 1 6 7
-27 -23 -11 -3 30 9 25 15 1 15 5 0 2 0 8 5 4 2 -1 8 14 12 9 5 5 4 6 10 13 8 9 12
27 24 2 10 11 28 10 39 4 4 5 2 7 7 -0 1 7 11 12 19 5 2 8 9 3 8 12 6 10 9 7 6
37 4 -12 18 9 11 32 11 7 1 -1 3 1 5 7 5 4 11 18 -5 -3 1 8 12 16 1 2 3 2 3 3 3
-11 26 62 48 34 2 1 1 2 3 3 3 5 3 6 9 7 15 -1 -6 -2 6 13 4 2 5 2 0 1 2 3 6
33 22 12 2 -0 3 4 4 5 7 6 1 3 7 3 -1 2 5 11 12 7 16 3 0 1 1 2 4 6 6 7 7
-3 3 4 4 3 3 3 4 4 9 5 6 8 5 6 3 8 11 16 11 3 1 -0 1 4 7 8 5 4 6 9 8
0 0 3 2 4 5 6 10 0 -1 6 4 5 7 8 9 13 5 2 2 2 2 3 3 5 3 3 5 6 6 8 6
7 6 5 7 5 -5 5 3 4 4 3 8 11 12 9 8 2 4 2 2 2 1 2 4 5 5 6 4 6 7 6 5
8 5 12 9 2 1 4 6 8 5 8 15 12 9 4 3 2 3 3 2 3 4 5 7 7 7 6 7 7 7 6 6
4 5 4 5 4 10 5 8 3 14 14 4 3 3 0 2 3 3 3 4 5 5 6 6 5 7 7 10 6 7 9 9
4 5 4 7 11 8 7 9 13 4 3 4 -0 2 3 3 3 4 5 3 3 6 6 6 8 7 8 9 8 3 -0 3
4 4 10 12 7 5 15 12 2 3 1 0 1 3 3 4 4 4 3 4 7 7 9 10 8 10 10 8 6 4 3 5
4 9 7 8 7 7 7 3 -0 2 -0 2 3 3 4 4 3 4 4 5 6 4 5 6 7 6 5 11 10 15 11 2
4 7 6 8 5 3 7 0 4 1 -1 3 3 4 3 2 4 4 5 7 9 13 6 3 7 11 0 -6 7 7 0 5
5 8 5 7 3 4 2 3 1 2 2 3 3 2 2 5 7 9 9 10 -0 19 1 -4 13 4 11 -6 8 10 4 7
11 11 4 2 4 2 3 4 2 13 -2 3 6 0 4 8 11 11 5 8 8 -7 -0 8 15 6 9 -5 2 5 6 8
7 5 2 4 1 1 4 5 4 16 -6 1 10 3 9 9 7 4 4 5 19 -8 8 10 5 11 16 6 4 9 10 8
6 5 5 1 3 2 4 5 10 3 0 19 -5 6 0 4 2 15 -13 3 1 2 12 18 6 9 9 7 6 5 4 6
Height
5787 5786 5783 5783 5789 5793 5794 5794 5796 5800 5804 5807 5810 5812 5815 5817 5818 5820 5820 5817 5816 5815 5815 5811 5809 5807 5805 5804 5802 5801 5801 5799
5781 5773 5775 5779 5784 5788 5790 5790 5792 5796 5801 5806 5809 5810 5812 5814 5816 5816 5815 5813 5813 5811 5808 5807 5805 5803 5799 5798 5797 5795 5794 5792
5782 5782 5781 5782 5781 5783 5782 5786 5790 5796 5802 5806 5809 5810 5811 5813 5813 5813 5811 5810 5810 5806 5803 5801 5800 5797 5795 5793 5791 5789 5789 5786
5771 5776 5780 5782 5783 5786 5787 5787 5792 5797 5801 5806 5807 5807 5808 5809 5810 5809 5809 5808 5806 5803 5799 5796 5795 5795 5790 5788 5787 5786 5783 5779
5773 5774 5777 5780 5780 5780 5783 5789 5793 5797 5801 5803 5805 5806 5808 5807 5804 5805 5804 5803 5801 5797 5795 5793 5792 5789 5786 5784 5783 5780 5777 5775
5772 5774 5774 5776 5777 5780 5787 5792 5796 5798 5798 5800 5804 5805 5803 5803 5800 5801 5800 5796 5794 5792 5792 5790 5788 5785 5782 5779 5777 5774 5772 5770
5772 5775 5772 5776 5782 5786 5789 5794 5797 5796 5798 5799 5800 5799 5800 5798 5797 5796 5795 5792 5789 5790 5788 5785 5783 5779 5777 5773 5770 5767 5765 5762
5777 5782 5782 5783 5786 5789 5790 5792 5793 5794 5796 5798 5795 5796 5796 5795 5793 5793 5791 5788 5787 5786 5782 5780 5776 5773 5769 5766 5763 5761 5758 5754
5779 5783 5786 5787 5788 5787 5789 5789 5792 5793 5794 5794 5793 5792 5792 5790 5791 5787 5786 5784 5783 5781 5777 5774 5770 5767 5763 5759 5755 5752 5749 5745
5783 5785 5786 5786 5787 5787 5787 5789 5789 5791 5790 5789 5791 5791 5788 5789 5786 5783 5782 5781 5778 5774 5770 5768 5763 5759 5754 5749 5745 5741 5738 5734
5785 5786 5785 5785 5786 5784 5786 5787 5786 5787 5787 5788 5789 5784 5785 5783 5781 5779 5778 5775 5770 5767 5764 5759 5755 5750 5744 5739 5735 5730 5725 5720
5780 5781 5783 5782 5782 5782 5783 5783 5783 5784 5785 5785 5783 5779 5779 5779 5777 5774 5772 5768 5764 5760 5754 5749 5744 5739 5734 5729 5723 5717 5712 5709
5779 5779 5780 5777 5779 5778 5780 5781 5782 5781 5780 5779 5776 5775 5775 5774 5771 5768 5764 5759 5755 5748 5743 5739 5734 5728 5722 5717 5711 5706 5702 5697
5779 5779 5778 5778 5778 5777 5778 5779 5778 5777 5775 5775 5772 5772 5772 5768 5762 5758 5753 5749 5744 5738 5733 5728 5722 5716 5710 5706 5701 5696 5691 5685
5773 5773 5773 5775 5775 5773 5774 5773 5773 5772 5773 5770 5769 5766 5761 5755 5751 5747 5743 5737 5731 5726 5720 5714 5708 5704 5699 5693 5688 5684 5678 5673
5768 5767 5769 5770 5770 5768 5768 5768 5769 5767 5765 5763 5758 5753 5750 5745 5741 5737 5731 5725 5720 5713 5707 5702 5698 5693 5687 5681 5675 5670 5665 5661
5766 5765 5765 5766 5766 5766 5766 5765 5764 5762 5758 5754 5749 5746 5741 5736 5731 5726 5719 5712 5706 5703 5699 5694 5687 5680 5674 5668 5662 5657 5651 5645
5762 5762 5763 5763 5764 5762 5761 5760 5757 5754 5750 5746 5742 5738 5732 5726 5720 5714 5708 5704 5698 5693 5689 5682 5675 5668 5661 5654 5648 5642 5634 5627
5760 5760 5760 5760 5760 5759 5757 5754 5752 5747 5743 5738 5732 5727 5721 5715 5710 5704 5699 5694 5689 5682 5676 5667 5660 5653 5646 5639 5631 5623 5616 5609
5757 5757 5756 5756 5756 5753 5750 5746 5743 5738 5733 5727 5721 5715 5711 5706 5702 5693 5692 5682 5675 5668 5661 5653 5646 5639 5632 5623 5615 5607 5599 5590